Change the Weather History Date:

Monday, July 8, 2013

  Actual Average Record
Temperature  
Mean Temperature 78 °F -  
Max Temperature 84 °F 75 °F 86 °F (2012)
Min Temperature 73 °F 60 °F 55 °F (1984)
Cooling Degree Days 14    
Growing Degree Days 28 (Base 50)    
Moisture  
Dew Point 73 °F    
Average Humidity 88    
Maximum Humidity 100    
Minimum Humidity 69    
Precipitation  
Precipitation 0.00 in - - ()
Sea Level Pressure  
Sea Level Pressure 29.98 in    
Wind  
Wind Speed 7 mph (SW)    
Max Wind Speed 13 mph    
Max Gust Speed 24 mph    
Visibility 8 miles    
Events      
Averages and records for this station are not official NWS values.
T = Trace of Precipitation, MM = Missing Value Source: NWS Daily Summary

Daily Weather History Graph

Daily Weather History Graph

Search for Another Location

Airport or City:

Trip Planner

Search our weather history database for the weather conditions in past years. The results will help you decide how hot, cold, wet, or windy it might be!

Date:

Astronomy

Jul. 08, 2013 Rise Set
Actual Time 5:13 AM EDT 8:16 PM EDT
Civil Twilight 4:39 AM EDT 8:49 PM EDT
Nautical Twilight 3:57 AM EDT 9:32 PM EDT
Astronomical Twilight 3:06 AM EDT 10:22 PM EDT
Moon 5:41 AM EDT (7/8) 8:15 PM EDT (7/8)
Length of Visible Light 16h 09m
Length of Day
15h 02m
New Moon, 0% of the Moon is Illuminated
Jul 8
New Moon
Jul 15
First Quarter
Jul 22
Full
Jul 29
Last Quarter
Aug 6
New

Hourly Weather History & Observations

Time (EDT) Temp. Heat Index Dew Point Humidity Pressure Visibility Wind Dir Wind Speed Gust Speed Precip Events Conditions
12:23 AM 73.4 °F - 73.4 °F 100% 29.97 in 5.0 mi SW 5.8 mph - N/A   Overcast
12:52 AM 73.0 °F - 73.0 °F 100% 29.96 in 2.5 mi SW 5.8 mph - N/A   Overcast
1:23 AM 73.4 °F - 73.4 °F 100% 29.95 in 3.0 mi SW 6.9 mph - N/A   Overcast
1:52 AM 73.0 °F - 73.0 °F 100% 29.96 in 4.0 mi SW 8.1 mph - N/A   Overcast
2:07 AM 73.4 °F - 73.4 °F 100% 29.95 in 2.5 mi SW 8.1 mph - N/A   Overcast
2:19 AM 73.4 °F - 73.4 °F 100% 29.95 in 5.0 mi SW 8.1 mph - N/A   Overcast
2:52 AM 73.0 °F - 73.0 °F 100% 29.96 in 6.0 mi SW 5.8 mph - N/A   Overcast
3:52 AM 73.0 °F - 73.0 °F 100% 29.96 in 6.0 mi Variable 4.6 mph - N/A   Mostly Cloudy
4:02 AM 73.4 °F - 73.4 °F 100% 29.95 in 7.0 mi SW 4.6 mph - N/A   Scattered Clouds
4:52 AM 73.0 °F - 73.0 °F 100% 29.96 in 7.0 mi SW 4.6 mph - N/A   Clear
5:52 AM 73.9 °F - 73.0 °F 97% 29.96 in 7.0 mi SW 4.6 mph - N/A   Clear
6:52 AM 75.0 °F - 73.0 °F 94% 29.96 in 8.0 mi SW 11.5 mph 16.1 mph N/A   Clear
7:52 AM 77.0 °F - 73.0 °F 88% 29.97 in 9.0 mi SW 10.4 mph 20.7 mph N/A   Clear
8:52 AM 79.0 °F - 73.0 °F 82% 29.97 in 10.0 mi SW 8.1 mph 18.4 mph N/A   Clear
9:52 AM 81.0 °F 84.9 °F 71.1 °F 72% 29.97 in 10.0 mi WSW 12.7 mph 24.2 mph N/A   Clear
10:52 AM 82.0 °F 86.7 °F 72.0 °F 71% 29.98 in 10.0 mi SW 8.1 mph 18.4 mph N/A   Clear
11:52 AM 82.0 °F 86.3 °F 71.1 °F 69% 29.98 in 10.0 mi WSW 12.7 mph 21.9 mph N/A   Clear
12:52 PM 82.9 °F 88.0 °F 72.0 °F 69% 29.98 in 10.0 mi SW 9.2 mph 19.6 mph N/A   Clear
1:52 PM 82.0 °F 87.4 °F 73.0 °F 74% 29.98 in 10.0 mi SW 11.5 mph 19.6 mph N/A   Clear
2:52 PM 81.0 °F 85.8 °F 73.0 °F 77% 29.99 in 10.0 mi WSW 11.5 mph 20.7 mph N/A   Clear
3:52 PM 84.0 °F 91.2 °F 73.9 °F 72% 29.99 in 10.0 mi Variable 6.9 mph 16.1 mph N/A   Clear
4:52 PM 82.0 °F 87.9 °F 73.9 °F 76% 29.99 in 10.0 mi WSW 4.6 mph - N/A   Clear
5:52 PM 80.1 °F 84.5 °F 73.9 °F 81% 29.99 in 10.0 mi SSW 6.9 mph - N/A   Clear
6:52 PM 79.0 °F - 72.0 °F 79% 30.00 in 10.0 mi Variable 6.9 mph - N/A   Clear
7:52 PM 77.0 °F - 71.1 °F 82% 30.01 in 10.0 mi SW 4.6 mph - N/A   Clear
8:52 PM 75.0 °F - 72.0 °F 90% 30.02 in 10.0 mi SSW 5.8 mph - N/A   Clear
9:52 PM 75.0 °F - 71.1 °F 87% 30.05 in 10.0 mi SW 5.8 mph - N/A   Clear
10:52 PM 73.9 °F - 71.1 °F 91% 30.05 in 10.0 mi WSW 8.1 mph - N/A   Clear
11:52 PM 73.9 °F - 71.1 °F 91% 30.06 in 10.0 mi Variable 6.9 mph - N/A   Clear